Flag for Germany Weather past 2 weeks in Marburg, Hesse, Germany

Now
44 °F

Overcast.


Feels Like: 41 °F
Forecast: 32 / 44 °F
Wind: 5 mph from Northwest

Location: Giessen

Current Time: Mar 5, 2015 at 6:09:36 PM

Latest Report: Mar 5, 2015 at 5:00 PM


Visibility: 44 mi

Pressure: 30.61 "Hg

Humidity: 57%

Dew point: 29 °F

Location of MarburgLocation

Historic Weather in Marburg — Graph

°F

Marburg temperature yesterday

Maximum temperature yesterday: 44 °F (at 3:00 PM)
Minimum temperature yesterday: 33 °F (at 6:00 AM)
Average temperature yesterday: 37 °F

Past Weeks' High & Low Weather Summary

 TemperatureHumidityPressure
High51 °F (Mar 1, 3:00 PM)100% (Feb 22, 4:00 AM)30.68 "Hg (Feb 22, 4:00 AM)
Low28 °F (Feb 25, 3:00 AM)51% (Mar 2, 4:00 PM)29.41 "Hg (Feb 21, 7:00 AM)
Average38 °F84%29.98 "Hg
* Reported Feb 18 5:00 PM — Mar 5 5:00 PM, Marburg, Weather by CustomWeather, © 2015

Note: Actual official high and low records may vary slightly from our data, if they occured in-between our weather recording intervals... More about our weather records

Advertising

Marburg weather history for previous 24 hours

 ConditionsComfort  
Time TempWeatherWind HumidityBarometerVisibility
5:00 PM
Thu, Mar 5
44 °FOvercast.5 mph57%30.61 "Hg43 mi
4:00 PM45 °FOvercast.6 mph59%30.60 "Hg40 mi
3:00 PM44 °FOvercast.6 mph60%30.61 "Hg40 mi
2:00 PM44 °FOvercast.5 mph60%30.61 "Hg31 mi
1:00 PM44 °FOvercast.5 mph61%30.62 "Hg28 mi
12:00 PM41 °FOvercast.6 mph66%30.63 "Hg31 mi
11:00 AM40 °FOvercast.3 mph69%30.63 "Hg37 mi
10:00 AM40 °FOvercast.3 mph71%30.62 "Hg28 mi
9:00 AM38 °FScattered clouds.3 mph79%30.61 "Hg28 mi
8:00 AM34 °FPassing clouds.3 mph86%30.60 "Hg22 mi
7:00 AM35 °FOvercast.2 mph89%30.59 "Hg25 mi
6:00 AM35 °FPassing clouds.3 mph84%30.57 "Hg28 mi
5:00 AM33 °FOvercast.3 mph92%30.55 "Hg31 mi
3:00 AM36 °FLow clouds.1 mph85%30.51 "Hg31 mi
2:00 AM37 °FPassing clouds.2 mph84%30.47 "Hg31 mi
1:00 AM36 °FPassing clouds.3 mph88%30.45 "Hg22 mi
12:00 AM36 °FPassing clouds.6 mph89%30.43 "Hg19 mi
11:00 PM
Wed, Mar 4
36 °FPassing clouds.5 mph88%30.40 "Hg25 mi
10:00 PM37 °FDrizzle. Overcast.6 mph92%30.39 "Hg11 mi
9:00 PM35 °FOvercast.2 mph97%30.38 "Hg7 mi
8:00 PM34 °FPassing clouds.3 mph97%30.37 "Hg9 mi
7:00 PM35 °FLow clouds.5 mph95%30.36 "Hg19 mi
6:00 PM38 °FLow clouds.5 mph90%30.34 "Hg40 mi
Weather by CustomWeather, © 2015

See weather overviewHow to use our weather pages